This is the latest recevied weather packets stored in our database for station/object OE-11307. If no packets are shown the sender has not sent any weather packets the latest 10 day(s).
| Time | Temp. | Humidity | Pressure | Rain* | Wind** | Luminosity | Snow |
|---|---|---|---|---|---|---|---|
| 1787673914 | 16.67° C | 87% | 851.4 hPa | 0 mm | - | 158 W/m² | - |
| 1787673314 | 16.67° C | 83% | 851.4 hPa | 0 mm | - | 164 W/m² | - |
| 1787672487 | 16.67° C | 81% | 851.4 hPa | 0 mm | - | 265 W/m² | - |
| 1787672114 | 16.67° C | 81% | 851.4 hPa | 0 mm | - | 214 W/m² | - |
| 1787671514 | 16.67° C | 78% | 851.4 hPa | 0 mm | - | 277 W/m² | - |
| 1787670687 | 16.67° C | 79% | 851.3 hPa | 0 mm | - | 315 W/m² | - |
| 1787670314 | 16.67° C | 82% | 851.3 hPa | 0 mm | - | 410 W/m² | - |
| 1787669714 | 16.11° C | 84% | 851.2 hPa | 0 mm | - | 277 W/m² | - |
| 1787668887 | 15.56° C | 85% | 851.1 hPa | 0 mm | - | 176 W/m² | - |
| 1787668514 | 15.56° C | 84% | 851.1 hPa | 0 mm | - | 139 W/m² | - |
| 1787667913 | 15.56° C | 86% | 851 hPa | 0 mm | - | 145 W/m² | - |
| 1787667086 | 15.56° C | 88% | 850.9 hPa | 0 mm | - | 139 W/m² | - |
| 1787666714 | 15.56° C | 88% | 850.9 hPa | 0 mm | - | 113 W/m² | - |
| 1787666114 | 15.56° C | 87% | 850.8 hPa | 0 mm | - | 158 W/m² | - |
| 1787665287 | 15.56° C | 88% | 850.8 hPa | 0 mm | - | 158 W/m² | - |
| 1787664914 | 15.56° C | 87% | 850.8 hPa | 0 mm | - | 195 W/m² | - |
| 1787664314 | 15° C | 88% | 850.7 hPa | 0 mm | - | 120 W/m² | - |
| 1787663487 | 15.56° C | 87% | 850.7 hPa | 0 mm | - | 164 W/m² | - |
| 1787663114 | 15.56° C | 87% | 850.7 hPa | 0 mm | - | 189 W/m² | - |
| 1787662514 | 15.56° C | 88% | 850.7 hPa | 0 mm | - | 183 W/m² | - |
| 1787661687 | 15° C | 88% | 850.7 hPa | 0 mm | - | 132 W/m² | - |
| 1787661314 | 15° C | 87% | 850.5 hPa | 0 mm | - | 88 W/m² | - |
| 1787660714 | 15° C | 85% | 850.4 hPa | 0 mm | - | 208 W/m² | - |
| 1787660125 | 15° C | 87% | 850.4 hPa | 0 mm | - | 340 W/m² | - |
| 1787659513 | 15° C | 88% | 850.5 hPa | 0 mm | - | 397 W/m² | - |
* Rain latest hour (hover to see other rain measurements)
** Current wind speed in m/s (hover to see current wind gust speed)